• In Österreich
  • Länderverzeichnis
  • Für 7 Tage
  • Wassertemperatur
  • Satellitenkarten
  • Wetterkarte
  • News
  • Widgets
  • user-avatar
    Anmelden

    Stündliche Wetter Manika

    Heute, 19 Oktober, Freitag

    Zeit Temperatur Niederschläge Wind Luftdruck Luftfeuchtigkeit
    00:00 +21°C° 0 mm 1 m/S 679 mmHg 84%
    01:00 +21°C° 0 mm 1 m/S 679 mmHg 85%
    02:00 +20°C° 0 mm 1 m/S 679 mmHg 86%
    03:00 +20°C° 0 mm 1 m/S 679 mmHg 86%
    04:00 +20°C° 0 mm 1 m/S 679 mmHg 86%
    05:00 +20°C° 0 mm 1 m/S 679 mmHg 86%
    06:00 +21°C° 0 mm 1 m/S 679 mmHg 80%
    07:00 +22°C° 0 mm 1 m/S 680 mmHg 74%
    08:00 +24°C° 0 mm 1 m/S 681 mmHg 67%
    09:00 +25°C° 0 mm 1 m/S 681 mmHg 61%
    10:00 +27°C° 0 mm 1 m/S 681 mmHg 54%
    11:00 +29°C° 0 mm 2 m/S 681 mmHg 47%
    12:00 +29°C° 0 mm 2 m/S 681 mmHg 46%
    13:00 +30°C° 0 mm 2 m/S 680 mmHg 45%
    14:00 +30°C° 0 mm 2 m/S 680 mmHg 44%
    15:00 +29°C° 0.1 mm 2 m/S 679 mmHg 46%
    16:00 +29°C° 0.1 mm 2 m/S 679 mmHg 48%
    17:00 +28°C° 0.1 mm 2 m/S 679 mmHg 50%
    18:00 +26°C° 0 mm 2 m/S 679 mmHg 57%
    19:00 +25°C° 0 mm 2 m/S 679 mmHg 64%
    20:00 +23°C° 0 mm 2 m/S 679 mmHg 70%
    21:00 +23°C° 0 mm 2 m/S 679 mmHg 74%
    22:00 +21°C° 0 mm 2 m/S 679 mmHg 78%
    23:00 +22°C° 0 mm 1 m/S 679 mmHg 81%

    Morgen, 20 Oktober, Samstag

    Zeit Temperatur Niederschläge Wind Luftdruck Luftfeuchtigkeit
    00:00 +21°C° 0 mm 1 m/S 679 mmHg 83%
    01:00 +21°C° 0 mm 1 m/S 679 mmHg 85%
    02:00 +21°C° 0 mm 1 m/S 679 mmHg 87%
    03:00 +20°C° 0 mm 1 m/S 679 mmHg 88%
    04:00 +20°C° 0 mm 1 m/S 679 mmHg 90%
    05:00 +20°C° 0 mm 1 m/S 679 mmHg 91%
    06:00 +22°C° 0 mm 1 m/S 680 mmHg 80%
    07:00 +24°C° 0 mm 1 m/S 681 mmHg 68%
    08:00 +26°C° 0 mm 2 m/S 682 mmHg 57%
    09:00 +28°C° 0 mm 2 m/S 682 mmHg 48%
    10:00 +30°C° 0 mm 3 m/S 682 mmHg 39%
    11:00 +33°C° 0 mm 3 m/S 682 mmHg 30%
    12:00 +33°C° 0 mm 3 m/S 682 mmHg 28%
    13:00 +34°C° 0 mm 4 m/S 681 mmHg 26%
    14:00 +35°C° 0 mm 4 m/S 681 mmHg 24%
    15:00 +33°C° 0 mm 5 m/S 680 mmHg 27%
    16:00 +32°C° 0 mm 5 m/S 680 mmHg 30%
    17:00 +30°C° 0 mm 5 m/S 680 mmHg 34%
    18:00 +28°C° 0 mm 5 m/S 681 mmHg 40%
    19:00 +26°C° 0 mm 5 m/S 681 mmHg 47%
    20:00 +23°C° 0 mm 4 m/S 682 mmHg 53%
    21:00 +22°C° 0 mm 4 m/S 682 mmHg 57%
    22:00 +21°C° 0 mm 4 m/S 683 mmHg 61%
    23:00 +20°C° 0 mm 3 m/S 683 mmHg 65%

    übermorgen, 21 Oktober, Sonntag

    Zeit Temperatur Niederschläge Wind Luftdruck Luftfeuchtigkeit
    00:00 +19°C° 0 mm 3 m/S 683 mmHg 69%
    01:00 +19°C° 0 mm 3 m/S 683 mmHg 73%
    02:00 +18°C° 0 mm 3 m/S 683 mmHg 77%
    03:00 +18°C° 0 mm 3 m/S 683 mmHg 77%
    04:00 +18°C° 0 mm 3 m/S 683 mmHg 78%
    05:00 +18°C° 0 mm 3 m/S 683 mmHg 78%
    06:00 +18°C° 0.1 mm 3 m/S 684 mmHg 74%
    07:00 +19°C° 0.1 mm 3 m/S 684 mmHg 71%
    08:00 +19°C° 0.1 mm 3 m/S 685 mmHg 67%
    09:00 +20°C° 0 mm 3 m/S 685 mmHg 62%
    10:00 +21°C° 0 mm 4 m/S 685 mmHg 57%
    11:00 +23°C° 0 mm 4 m/S 685 mmHg 52%
    12:00 +23°C° 0 mm 4 m/S 685 mmHg 50%
    13:00 +23°C° 0 mm 4 m/S 684 mmHg 48%
    14:00 +23°C° 0 mm 4 m/S 684 mmHg 46%
    15:00 +23°C° 0 mm 4 m/S 683 mmHg 46%
    16:00 +22°C° 0 mm 4 m/S 683 mmHg 46%
    17:00 +22°C° 0 mm 4 m/S 683 mmHg 47%
    18:00 +21°C° 0 mm 4 m/S 683 mmHg 52%
    19:00 +19°C° 0 mm 3 m/S 684 mmHg 56%
    20:00 +18°C° 0 mm 3 m/S 685 mmHg 61%
    21:00 +17°C° 0 mm 3 m/S 685 mmHg 66%
    22:00 +17°C° 0 mm 3 m/S 685 mmHg 71%
    23:00 +16°C° 0 mm 3 m/S 685 mmHg 76%

    22 Oktober, Montag

    Zeit Temperatur Niederschläge Wind Luftdruck Luftfeuchtigkeit
    00:00 +16°C° 0 mm 3 m/S 684 mmHg 76%
    01:00 +16°C° 0 mm 3 m/S 683 mmHg 77%
    02:00 +16°C° 0 mm 3 m/S 683 mmHg 77%
    03:00 +16°C° 0 mm 2 m/S 683 mmHg 78%
    04:00 +15°C° 0 mm 2 m/S 684 mmHg 80%
    05:00 +15°C° 0 mm 2 m/S 684 mmHg 81%
    06:00 +16°C° 0 mm 2 m/S 684 mmHg 75%
    07:00 +17°C° 0 mm 2 m/S 685 mmHg 69%
    08:00 +17°C° 0 mm 2 m/S 685 mmHg 63%
    09:00 +19°C° 0 mm 3 m/S 685 mmHg 55%
    10:00 +21°C° 0 mm 3 m/S 685 mmHg 47%
    11:00 +24°C° 0 mm 3 m/S 685 mmHg 39%
    12:00 +25°C° 0 mm 3 m/S 684 mmHg 35%
    13:00 +26°C° 0 mm 4 m/S 684 mmHg 31%
    14:00 +27°C° 0 mm 4 m/S 683 mmHg 27%
    15:00 +27°C° 0 mm 4 m/S 683 mmHg 29%
    16:00 +26°C° 0 mm 4 m/S 683 mmHg 30%
    17:00 +25°C° 0 mm 4 m/S 683 mmHg 32%
    18:00 +22°C° 0 mm 4 m/S 683 mmHg 40%
    19:00 +20°C° 0 mm 4 m/S 683 mmHg 49%
    20:00 +18°C° 0 mm 3 m/S 684 mmHg 57%
    21:00 +18°C° 0 mm 3 m/S 684 mmHg 63%
    22:00 +17°C° 0 mm 3 m/S 684 mmHg 69%
    23:00 +17°C° 0 mm 2 m/S 684 mmHg 75%

    23 Oktober, Dienstag

    Zeit Temperatur Niederschläge Wind Luftdruck Luftfeuchtigkeit
    00:00 +16°C° 0 mm 2 m/S 683 mmHg 76%
    01:00 +16°C° 0 mm 2 m/S 683 mmHg 77%
    02:00 +16°C° 0 mm 1 m/S 683 mmHg 78%
    03:00 +15°C° 0 mm 1 m/S 683 mmHg 79%
    04:00 +15°C° 0 mm 1 m/S 683 mmHg 81%
    05:00 +15°C° 0 mm 1 m/S 683 mmHg 82%
    06:00 +16°C° 0 mm 2 m/S 683 mmHg 74%
    07:00 +18°C° 0 mm 2 m/S 684 mmHg 65%
    08:00 +19°C° 0 mm 2 m/S 685 mmHg 56%
    09:00 +22°C° 0 mm 3 m/S 685 mmHg 48%
    10:00 +25°C° 0 mm 3 m/S 685 mmHg 40%
    11:00 +27°C° 0 mm 3 m/S 684 mmHg 32%
    12:00 +28°C° 0 mm 3 m/S 684 mmHg 30%
    13:00 +29°C° 0 mm 3 m/S 683 mmHg 29%
    14:00 +29°C° 0 mm 4 m/S 682 mmHg 27%
    15:00 +28°C° 0 mm 4 m/S 682 mmHg 32%
    16:00 +27°C° 0 mm 4 m/S 682 mmHg 37%
    17:00 +26°C° 0 mm 4 m/S 681 mmHg 41%
    18:00 +24°C° 0 mm 3 m/S 682 mmHg 50%
    19:00 +21°C° 0 mm 3 m/S 682 mmHg 58%
    20:00 +19°C° 0 mm 2 m/S 682 mmHg 66%
    21:00 +19°C° 0 mm 2 m/S 682 mmHg 70%
    22:00 +18°C° 0 mm 2 m/S 682 mmHg 74%
    23:00 +18°C° 0 mm 2 m/S 682 mmHg 78%

    24 Oktober, Mittwoch

    Zeit Temperatur Niederschläge Wind Luftdruck Luftfeuchtigkeit
    00:00 +17°C° 0 mm 2 m/S 682 mmHg 79%
    01:00 +18°C° 0 mm 1 m/S 681 mmHg 80%
    02:00 +18°C° 0 mm 1 m/S 681 mmHg 81%
    03:00 +18°C° 0 mm 1 m/S 681 mmHg 84%
    04:00 +16°C° 0 mm 1 m/S 681 mmHg 86%
    05:00 +16°C° 0 mm 1 m/S 681 mmHg 89%
    06:00 +19°C° 0 mm 1 m/S 682 mmHg 78%
    07:00 +21°C° 0 mm 1 m/S 683 mmHg 67%
    08:00 +23°C° 0 mm 1 m/S 684 mmHg 56%
    09:00 +25°C° 0 mm 2 m/S 684 mmHg 48%
    10:00 +27°C° 0 mm 2 m/S 684 mmHg 41%
    11:00 +30°C° 0 mm 2 m/S 684 mmHg 33%
    12:00 +30°C° 0 mm 3 m/S 683 mmHg 32%
    13:00 +31°C° 0 mm 3 m/S 682 mmHg 31%
    14:00 +31°C° 0 mm 3 m/S 681 mmHg 29%
    15:00 +30°C° 0.1 mm 4 m/S 681 mmHg 33%
    16:00 +28°C° 0.1 mm 4 m/S 681 mmHg 37%
    17:00 +27°C° 0.1 mm 4 m/S 680 mmHg 41%
    18:00 +25°C° 0.2 mm 3 m/S 681 mmHg 48%
    19:00 +24°C° 0.2 mm 3 m/S 681 mmHg 54%
    20:00 +21°C° 0.2 mm 2 m/S 681 mmHg 61%
    21:00 +20°C° 0.4 mm 2 m/S 681 mmHg 65%
    22:00 +21°C° 0.4 mm 1 m/S 681 mmHg 69%
    23:00 +20°C° 0.4 mm 1 m/S 682 mmHg 73%
    Mehr zeigen